Year,Month,Day,Hour,Minute,Value (Times are PST for temperature in C)
2009,08,02,00,00,25.30
2009,08,02,00,01,25.30
2009,08,02,00,02,25.30
2009,08,02,00,03,25.30
2009,08,02,00,04,25.30
2009,08,02,00,05,25.20
2009,08,02,00,06,25.20
2009,08,02,00,07,25.20
2009,08,02,00,08,25.10
2009,08,02,00,09,25.10
2009,08,02,00,10,25.10
2009,08,02,00,11,25.10
2009,08,02,00,12,25.10
2009,08,02,00,13,25.00
2009,08,02,00,14,25.00
2009,08,02,00,15,24.90
2009,08,02,00,16,24.90
2009,08,02,00,17,24.90
2009,08,02,00,18,24.80
2009,08,02,00,19,24.80
2009,08,02,00,20,24.80
2009,08,02,00,21,24.70
2009,08,02,00,22,24.70
2009,08,02,00,23,24.70
2009,08,02,00,24,24.60
2009,08,02,00,25,24.60
2009,08,02,00,26,24.60
2009,08,02,00,27,24.60
2009,08,02,00,28,24.50
2009,08,02,00,29,24.50
2009,08,02,00,30,24.50
2009,08,02,00,31,24.50
2009,08,02,00,32,24.40
2009,08,02,00,33,24.50
2009,08,02,00,34,24.50
2009,08,02,00,35,24.50
2009,08,02,00,36,24.50
2009,08,02,00,37,24.50
2009,08,02,00,38,24.50
2009,08,02,00,39,24.50
2009,08,02,00,40,24.50
2009,08,02,00,41,24.60
2009,08,02,00,42,24.60
2009,08,02,00,43,24.60
2009,08,02,00,44,24.60
2009,08,02,00,45,24.60
2009,08,02,00,46,24.60
2009,08,02,00,47,24.60
2009,08,02,00,48,24.60
2009,08,02,00,49,24.60
2009,08,02,00,50,24.60
2009,08,02,00,51,24.70
2009,08,02,00,52,24.70
2009,08,02,00,53,24.70
2009,08,02,00,54,24.70
2009,08,02,00,55,24.70
2009,08,02,00,56,24.70
2009,08,02,00,57,24.80
2009,08,02,00,58,24.80
2009,08,02,00,59,24.80
2009,08,02,01,00,24.80
2009,08,02,01,01,24.80
2009,08,02,01,02,24.90
2009,08,02,01,03,24.90
2009,08,02,01,04,25.00
2009,08,02,01,05,25.00
2009,08,02,01,06,25.10
2009,08,02,01,07,25.10
2009,08,02,01,08,25.20
2009,08,02,01,09,25.20
2009,08,02,01,10,25.20
2009,08,02,01,11,25.20
2009,08,02,01,12,25.20
2009,08,02,01,13,25.20
2009,08,02,01,14,25.20
2009,08,02,01,15,25.20
2009,08,02,01,16,25.30
2009,08,02,01,17,25.30
2009,08,02,01,18,25.30
2009,08,02,01,19,25.30
2009,08,02,01,20,25.30
2009,08,02,01,21,25.30
2009,08,02,01,22,25.30
2009,08,02,01,23,25.30
2009,08,02,01,24,25.30
2009,08,02,01,25,25.30
2009,08,02,01,26,25.30
2009,08,02,01,27,25.30
2009,08,02,01,28,25.30
2009,08,02,01,29,25.30
2009,08,02,01,30,25.30
2009,08,02,01,31,25.30
2009,08,02,01,32,25.40
2009,08,02,01,33,25.40
2009,08,02,01,34,25.40
2009,08,02,01,35,25.50
2009,08,02,01,36,25.50
2009,08,02,01,37,25.50
2009,08,02,01,38,25.50
2009,08,02,01,39,25.50
2009,08,02,01,40,25.50
2009,08,02,01,41,25.50
2009,08,02,01,42,25.50
2009,08,02,01,43,25.50
2009,08,02,01,44,25.40
2009,08,02,01,45,25.40
2009,08,02,01,46,25.40
2009,08,02,01,47,25.30
2009,08,02,01,48,25.30
2009,08,02,01,49,25.30
2009,08,02,01,50,25.20
2009,08,02,01,51,25.20
2009,08,02,01,52,25.10
2009,08,02,01,53,25.10
2009,08,02,01,54,25.10
2009,08,02,01,55,25.00
2009,08,02,01,56,25.00
2009,08,02,01,57,25.00
2009,08,02,01,58,24.90
2009,08,02,01,59,24.90
2009,08,02,02,00,24.90
2009,08,02,02,01,24.90
2009,08,02,02,02,24.90
2009,08,02,02,03,24.90
2009,08,02,02,04,24.90
2009,08,02,02,05,24.80
2009,08,02,02,06,24.80
2009,08,02,02,07,24.80
2009,08,02,02,08,24.80
2009,08,02,02,09,24.80
2009,08,02,02,10,24.70
2009,08,02,02,11,24.70
2009,08,02,02,12,24.70
2009,08,02,02,13,24.70
2009,08,02,02,14,24.60
2009,08,02,02,15,24.60
2009,08,02,02,16,24.60
2009,08,02,02,17,24.50
2009,08,02,02,18,24.50
2009,08,02,02,19,24.40
2009,08,02,02,20,24.30
2009,08,02,02,21,24.30
2009,08,02,02,22,24.20
2009,08,02,02,23,24.20
2009,08,02,02,24,24.10
2009,08,02,02,25,24.10
2009,08,02,02,26,24.10
2009,08,02,02,27,24.00
2009,08,02,02,28,24.00
2009,08,02,02,29,23.90
2009,08,02,02,30,23.90
2009,08,02,02,31,23.90
2009,08,02,02,32,23.80
2009,08,02,02,33,23.80
2009,08,02,02,34,23.80
2009,08,02,02,35,23.70
2009,08,02,02,36,23.70
2009,08,02,02,37,23.70
2009,08,02,02,38,23.70
2009,08,02,02,39,23.70
2009,08,02,02,40,23.60
2009,08,02,02,41,23.60
2009,08,02,02,42,23.60
2009,08,02,02,43,23.50
2009,08,02,02,44,23.40
2009,08,02,02,45,23.40
2009,08,02,02,46,23.40
2009,08,02,02,47,23.40
2009,08,02,02,48,23.30
2009,08,02,02,49,23.30
2009,08,02,02,50,23.20
2009,08,02,02,51,23.20
2009,08,02,02,52,23.20
2009,08,02,02,53,23.10
2009,08,02,02,54,23.10
2009,08,02,02,55,23.10
2009,08,02,02,56,23.10
2009,08,02,02,57,23.10
2009,08,02,02,58,23.00
2009,08,02,02,59,23.00
2009,08,02,03,00,23.00
2009,08,02,03,01,22.90
2009,08,02,03,02,22.90
2009,08,02,03,03,22.90
2009,08,02,03,04,22.90
2009,08,02,03,05,22.90
2009,08,02,03,06,22.90
2009,08,02,03,07,22.80
2009,08,02,03,08,22.80
2009,08,02,03,09,22.80
2009,08,02,03,10,22.80
2009,08,02,03,11,22.80
2009,08,02,03,12,22.80
2009,08,02,03,13,22.80
2009,08,02,03,14,22.70
2009,08,02,03,15,22.70
2009,08,02,03,16,22.70
2009,08,02,03,17,22.70
2009,08,02,03,18,22.70
2009,08,02,03,19,22.70
2009,08,02,03,20,22.70
2009,08,02,03,21,22.70
2009,08,02,03,22,22.70
2009,08,02,03,23,22.70
2009,08,02,03,24,22.70
2009,08,02,03,25,22.70
2009,08,02,03,26,22.70
2009,08,02,03,27,22.70
2009,08,02,03,28,22.70
2009,08,02,03,29,22.70
2009,08,02,03,30,22.70
2009,08,02,03,31,22.70
2009,08,02,03,32,22.70
2009,08,02,03,33,22.70
2009,08,02,03,34,22.70
2009,08,02,03,35,22.70
2009,08,02,03,36,22.80
2009,08,02,03,37,22.80
2009,08,02,03,38,22.80
2009,08,02,03,39,22.80
2009,08,02,03,40,22.80
2009,08,02,03,41,22.90
2009,08,02,03,42,22.90
2009,08,02,03,43,22.90
2009,08,02,03,44,22.90
2009,08,02,03,45,22.90
2009,08,02,03,46,23.00
2009,08,02,03,47,23.00
2009,08,02,03,48,23.00
2009,08,02,03,49,23.10
2009,08,02,03,50,23.10
2009,08,02,03,51,23.10
2009,08,02,03,52,23.20
2009,08,02,03,53,23.30
2009,08,02,03,54,23.40
2009,08,02,03,55,23.40
2009,08,02,03,56,23.50
2009,08,02,03,57,23.60
2009,08,02,03,58,23.60
2009,08,02,03,59,23.60
2009,08,02,04,00,23.70
2009,08,02,04,01,23.70
2009,08,02,04,02,23.70
2009,08,02,04,03,23.70
2009,08,02,04,04,23.70
2009,08,02,04,05,23.70
2009,08,02,04,06,23.70
2009,08,02,04,07,23.70
2009,08,02,04,08,23.70
2009,08,02,04,09,23.70
2009,08,02,04,10,23.70
2009,08,02,04,11,23.70
2009,08,02,04,12,23.70
2009,08,02,04,13,23.70
2009,08,02,04,14,23.60
2009,08,02,04,15,23.60
2009,08,02,04,16,23.60
2009,08,02,04,17,23.60
2009,08,02,04,18,23.50
2009,08,02,04,19,23.50
2009,08,02,04,20,23.50
2009,08,02,04,21,23.40
2009,08,02,04,22,23.40
2009,08,02,04,23,23.40
2009,08,02,04,24,23.40
2009,08,02,04,25,23.40
2009,08,02,04,26,23.40
2009,08,02,04,27,23.40
2009,08,02,04,28,23.40
2009,08,02,04,29,23.30
2009,08,02,04,30,23.30
2009,08,02,04,31,23.30
2009,08,02,04,32,23.30
2009,08,02,04,33,23.20
2009,08,02,04,34,23.20
2009,08,02,04,35,23.20
2009,08,02,04,36,23.10
2009,08,02,04,37,23.10
2009,08,02,04,38,23.00
2009,08,02,04,39,22.90
2009,08,02,04,40,22.90
2009,08,02,04,41,22.90
2009,08,02,04,42,22.90
2009,08,02,04,43,22.80
2009,08,02,04,44,22.80
2009,08,02,04,45,22.80
2009,08,02,04,46,22.80
2009,08,02,04,47,22.80
2009,08,02,04,48,22.70
2009,08,02,04,49,22.70
2009,08,02,04,50,22.70
2009,08,02,04,51,22.70
2009,08,02,04,52,22.70
2009,08,02,04,53,22.70
2009,08,02,04,54,22.70
2009,08,02,04,55,22.70
2009,08,02,04,56,22.60
2009,08,02,04,57,22.60
2009,08,02,04,58,22.60
2009,08,02,04,59,22.60
2009,08,02,05,00,22.60
2009,08,02,05,01,22.60
2009,08,02,05,02,22.60
2009,08,02,05,03,22.60
2009,08,02,05,04,22.50
2009,08,02,05,05,22.50
2009,08,02,05,06,22.50
2009,08,02,05,07,22.50
2009,08,02,05,08,22.40
2009,08,02,05,09,22.40
2009,08,02,05,10,22.40
2009,08,02,05,11,22.40
2009,08,02,05,12,22.30
2009,08,02,05,13,22.30
2009,08,02,05,14,22.30
2009,08,02,05,15,22.20
2009,08,02,05,16,22.20
2009,08,02,05,17,22.10
2009,08,02,05,18,22.10
2009,08,02,05,19,22.10
2009,08,02,05,20,22.10
2009,08,02,05,21,22.00
2009,08,02,05,22,22.00
2009,08,02,05,23,21.90
2009,08,02,05,24,21.90
2009,08,02,05,25,21.90
2009,08,02,05,26,21.90
2009,08,02,05,27,22.00
2009,08,02,05,28,22.00
2009,08,02,05,29,22.10
2009,08,02,05,30,22.10
2009,08,02,05,31,22.20
2009,08,02,05,32,22.30
2009,08,02,05,33,22.30
2009,08,02,05,34,22.30
2009,08,02,05,35,22.30
2009,08,02,05,36,22.40
2009,08,02,05,37,22.40
2009,08,02,05,38,22.40
2009,08,02,05,39,22.40
2009,08,02,05,40,22.40
2009,08,02,05,41,22.40
2009,08,02,05,42,22.40
2009,08,02,05,43,22.40
2009,08,02,05,44,22.30
2009,08,02,05,45,22.30
2009,08,02,05,46,22.20
2009,08,02,05,47,22.10
2009,08,02,05,48,22.10
2009,08,02,05,49,22.00
2009,08,02,05,50,21.90
2009,08,02,05,51,21.80
2009,08,02,05,52,21.80
2009,08,02,05,53,21.70
2009,08,02,05,54,21.70
2009,08,02,05,55,21.70
2009,08,02,05,56,21.60
2009,08,02,05,57,21.60
2009,08,02,05,58,21.60
2009,08,02,05,59,21.60
2009,08,02,06,00,21.50
2009,08,02,06,01,21.50
2009,08,02,06,02,21.50
2009,08,02,06,03,21.40
2009,08,02,06,04,21.40
2009,08,02,06,05,21.40
2009,08,02,06,06,21.30
2009,08,02,06,07,21.30
2009,08,02,06,08,21.30
2009,08,02,06,09,21.30
2009,08,02,06,10,21.30
2009,08,02,06,11,21.30
2009,08,02,06,12,21.30
2009,08,02,06,13,21.30
2009,08,02,06,14,21.30
2009,08,02,06,15,21.30
2009,08,02,06,16,21.30
2009,08,02,06,17,21.20
2009,08,02,06,18,21.20
2009,08,02,06,19,21.20
2009,08,02,06,20,21.20
2009,08,02,06,21,21.10
2009,08,02,06,22,21.10
2009,08,02,06,23,21.10
2009,08,02,06,24,21.10
2009,08,02,06,25,21.00
2009,08,02,06,26,21.00
2009,08,02,06,27,20.90
2009,08,02,06,28,20.90
2009,08,02,06,29,20.90
2009,08,02,06,30,20.80
2009,08,02,06,31,20.70
2009,08,02,06,32,20.70
2009,08,02,06,33,20.60
2009,08,02,06,34,20.60
2009,08,02,06,35,20.60
2009,08,02,06,36,20.50
2009,08,02,06,37,20.50
2009,08,02,06,38,20.50
2009,08,02,06,39,20.50
2009,08,02,06,40,20.60
2009,08,02,06,41,20.60
2009,08,02,06,42,20.70
2009,08,02,06,43,20.70
2009,08,02,06,44,20.70
2009,08,02,06,45,20.80
2009,08,02,06,46,20.80
2009,08,02,06,47,20.80
2009,08,02,06,48,20.80
2009,08,02,06,49,20.80
2009,08,02,06,50,20.80
2009,08,02,06,51,20.90
2009,08,02,06,52,20.90
2009,08,02,06,53,20.80
2009,08,02,06,54,20.80
2009,08,02,06,55,20.80
2009,08,02,06,56,20.70
2009,08,02,06,57,20.70
2009,08,02,06,58,20.70
2009,08,02,06,59,20.70
2009,08,02,07,00,20.70
2009,08,02,07,01,20.70
2009,08,02,07,02,20.60
2009,08,02,07,03,20.60
2009,08,02,07,04,20.60
2009,08,02,07,05,20.60
2009,08,02,07,06,20.60
2009,08,02,07,07,20.70
2009,08,02,07,08,20.70
2009,08,02,07,09,20.70
2009,08,02,07,10,20.80
2009,08,02,07,11,20.80
2009,08,02,07,12,20.90
2009,08,02,07,13,20.90
2009,08,02,07,14,20.90
2009,08,02,07,15,21.00
2009,08,02,07,16,21.10
2009,08,02,07,17,21.10
2009,08,02,07,18,21.20
2009,08,02,07,19,21.30
2009,08,02,07,20,21.30
2009,08,02,07,21,21.40
2009,08,02,07,22,21.40
2009,08,02,07,23,21.50
2009,08,02,07,24,21.50
2009,08,02,07,25,21.60
2009,08,02,07,26,21.70
2009,08,02,07,27,21.80
2009,08,02,07,28,21.80
2009,08,02,07,29,21.90
2009,08,02,07,30,22.00
2009,08,02,07,31,22.00
2009,08,02,07,32,22.10
2009,08,02,07,33,22.20
2009,08,02,07,34,22.30
2009,08,02,07,35,22.40
2009,08,02,07,36,22.40
2009,08,02,07,37,22.40
2009,08,02,07,38,22.40
2009,08,02,07,39,22.30
2009,08,02,07,40,22.30
2009,08,02,07,41,22.20
2009,08,02,07,42,22.20
2009,08,02,07,43,22.20
2009,08,02,07,44,22.30
2009,08,02,07,45,22.30
2009,08,02,07,46,22.30
2009,08,02,07,47,22.50
2009,08,02,07,48,22.60
2009,08,02,07,49,22.70
2009,08,02,07,50,22.70
2009,08,02,07,51,22.70
2009,08,02,07,52,22.80
2009,08,02,07,53,22.80
2009,08,02,07,54,22.80
2009,08,02,07,55,22.90
2009,08,02,07,56,22.90
2009,08,02,07,57,23.00
2009,08,02,07,58,23.00
2009,08,02,07,59,23.00
2009,08,02,08,00,23.00
2009,08,02,08,01,23.00
2009,08,02,08,02,23.00
2009,08,02,08,03,23.00
2009,08,02,08,04,22.90
2009,08,02,08,05,22.90
2009,08,02,08,06,22.80
2009,08,02,08,07,22.80
2009,08,02,08,08,22.90
2009,08,02,08,09,23.00
2009,08,02,08,10,23.10
2009,08,02,08,11,23.20
2009,08,02,08,12,23.20
2009,08,02,08,13,23.30
2009,08,02,08,14,23.40
2009,08,02,08,15,23.50
2009,08,02,08,16,23.50
2009,08,02,08,17,23.60
2009,08,02,08,18,23.70
2009,08,02,08,19,23.80
2009,08,02,08,20,23.80
2009,08,02,08,21,23.90
2009,08,02,08,22,24.10
2009,08,02,08,23,24.10
2009,08,02,08,24,24.20
2009,08,02,08,25,24.20
2009,08,02,08,26,24.30
2009,08,02,08,27,24.30
2009,08,02,08,28,24.20
2009,08,02,08,29,24.20
2009,08,02,08,30,24.10
2009,08,02,08,31,24.10
2009,08,02,08,32,24.10
2009,08,02,08,33,24.00
2009,08,02,08,34,24.00
2009,08,02,08,35,24.00
2009,08,02,08,36,24.00
2009,08,02,08,37,24.00
2009,08,02,08,38,24.00
2009,08,02,08,39,24.00
2009,08,02,08,40,24.00
2009,08,02,08,41,23.90
2009,08,02,08,42,23.90
2009,08,02,08,43,23.90
2009,08,02,08,44,23.90
2009,08,02,08,45,23.80
2009,08,02,08,46,23.80
2009,08,02,08,47,23.80
2009,08,02,08,48,23.80
2009,08,02,08,49,23.80
2009,08,02,08,50,23.70
2009,08,02,08,51,23.70
2009,08,02,08,52,23.70
2009,08,02,08,53,23.70
2009,08,02,08,54,23.70
2009,08,02,08,55,23.70
2009,08,02,08,56,23.70
2009,08,02,08,57,23.70
2009,08,02,08,58,23.70
2009,08,02,08,59,23.70
2009,08,02,09,00,23.60
2009,08,02,09,01,23.60
2009,08,02,09,02,23.60
2009,08,02,09,03,23.60
2009,08,02,09,04,23.60
2009,08,02,09,05,23.70
2009,08,02,09,06,23.70
2009,08,02,09,07,23.60
2009,08,02,09,08,23.50
2009,08,02,09,09,23.50
2009,08,02,09,10,23.60
2009,08,02,09,11,23.60
2009,08,02,09,12,23.60
2009,08,02,09,13,23.60
2009,08,02,09,14,23.70
2009,08,02,09,15,23.70
2009,08,02,09,16,23.70
2009,08,02,09,17,23.70
2009,08,02,09,18,23.70
2009,08,02,09,19,23.80
2009,08,02,09,20,23.70
2009,08,02,09,21,23.70
2009,08,02,09,22,23.70
2009,08,02,09,23,23.70
2009,08,02,09,24,23.70
2009,08,02,09,25,23.70
2009,08,02,09,26,23.70
2009,08,02,09,27,23.70
2009,08,02,09,28,23.70
2009,08,02,09,29,23.60
2009,08,02,09,30,23.60
2009,08,02,09,31,23.70
2009,08,02,09,32,23.80
2009,08,02,09,33,23.90
2009,08,02,09,34,23.90
2009,08,02,09,35,24.00
2009,08,02,09,36,24.00
2009,08,02,09,37,23.90
2009,08,02,09,38,23.80
2009,08,02,09,39,23.70
2009,08,02,09,40,23.70
2009,08,02,09,41,23.60
2009,08,02,09,42,23.60
2009,08,02,09,43,23.70
2009,08,02,09,44,23.70
2009,08,02,09,45,23.80
2009,08,02,09,46,23.80
2009,08,02,09,47,23.80
2009,08,02,09,48,23.90
2009,08,02,09,49,23.90
2009,08,02,09,50,23.90
2009,08,02,09,51,23.90
2009,08,02,09,52,24.00
2009,08,02,09,53,24.10
2009,08,02,09,54,24.10
2009,08,02,09,55,24.20
2009,08,02,09,56,24.20
2009,08,02,09,57,24.30
2009,08,02,09,58,24.30
2009,08,02,09,59,24.30
2009,08,02,10,00,24.20
2009,08,02,10,01,24.20
2009,08,02,10,02,24.20
2009,08,02,10,03,24.10
2009,08,02,10,04,24.10
2009,08,02,10,05,24.10
2009,08,02,10,06,24.20
2009,08,02,10,07,24.10
2009,08,02,10,08,24.00
2009,08,02,10,09,23.90
2009,08,02,10,10,23.80
2009,08,02,10,11,23.70
2009,08,02,10,12,23.70
2009,08,02,10,13,23.70
2009,08,02,10,14,23.80
2009,08,02,10,15,23.90
2009,08,02,10,16,23.90
2009,08,02,10,17,23.90
2009,08,02,10,18,23.90
2009,08,02,10,19,23.90
2009,08,02,10,20,24.00
2009,08,02,10,21,24.10
2009,08,02,10,22,24.10
2009,08,02,10,23,24.20
2009,08,02,10,24,24.30
2009,08,02,10,25,24.40
2009,08,02,10,26,24.50
2009,08,02,10,27,24.70
2009,08,02,10,28,24.70
2009,08,02,10,29,24.80
2009,08,02,10,30,24.90
2009,08,02,10,31,25.00
2009,08,02,10,32,25.10
2009,08,02,10,33,25.10
2009,08,02,10,34,25.20
2009,08,02,10,35,25.30
2009,08,02,10,36,25.30
2009,08,02,10,37,25.30
2009,08,02,10,38,25.30
2009,08,02,10,39,25.40
2009,08,02,10,40,25.40
2009,08,02,10,41,25.50
2009,08,02,10,42,25.60
2009,08,02,10,43,25.60
2009,08,02,10,44,25.70
2009,08,02,10,45,25.80
2009,08,02,10,46,25.80
2009,08,02,10,47,25.90
2009,08,02,10,48,25.90
2009,08,02,10,49,25.90
2009,08,02,10,50,25.90
2009,08,02,10,51,26.00
2009,08,02,10,52,26.00
2009,08,02,10,53,26.10
2009,08,02,10,54,26.20
2009,08,02,10,55,26.20
2009,08,02,10,56,26.30
2009,08,02,10,57,26.20
2009,08,02,10,58,26.10
2009,08,02,10,59,26.00
2009,08,02,11,00,25.90
2009,08,02,11,01,25.90
2009,08,02,11,02,25.90
2009,08,02,11,03,25.90
2009,08,02,11,04,25.90
2009,08,02,11,05,25.90
2009,08,02,11,06,25.90
2009,08,02,11,07,25.90
2009,08,02,11,08,25.80
2009,08,02,11,09,25.80
2009,08,02,11,10,25.90
2009,08,02,11,11,25.90
2009,08,02,11,12,25.90
2009,08,02,11,13,25.90
2009,08,02,11,14,25.90
2009,08,02,11,15,25.90
2009,08,02,11,16,25.90
2009,08,02,11,17,25.90
2009,08,02,11,18,25.80
2009,08,02,11,19,25.80
2009,08,02,11,20,25.80
2009,08,02,11,21,25.80
2009,08,02,11,22,25.90
2009,08,02,11,23,25.90
2009,08,02,11,24,25.90
2009,08,02,11,25,25.90
2009,08,02,11,26,25.80
2009,08,02,11,27,25.80
2009,08,02,11,28,25.90
2009,08,02,11,29,25.90
2009,08,02,11,30,25.90
2009,08,02,11,31,25.90
2009,08,02,11,32,25.90
2009,08,02,11,33,26.00
2009,08,02,11,34,26.10
2009,08,02,11,35,26.10
2009,08,02,11,36,26.20
2009,08,02,11,37,26.30
2009,08,02,11,38,26.30
2009,08,02,11,39,26.50
2009,08,02,11,40,26.60
2009,08,02,11,41,26.60
2009,08,02,11,42,26.70
2009,08,02,11,43,26.90
2009,08,02,11,44,27.00
2009,08,02,11,45,27.20
2009,08,02,11,46,27.30
2009,08,02,11,47,27.40
2009,08,02,11,48,27.40
2009,08,02,11,49,27.40
2009,08,02,11,50,27.40
2009,08,02,11,51,27.40
2009,08,02,11,52,27.50
2009,08,02,11,53,27.50
2009,08,02,11,54,27.40
2009,08,02,11,55,27.50
2009,08,02,11,56,27.60
2009,08,02,11,57,27.60
2009,08,02,11,58,27.60
2009,08,02,11,59,27.60
2009,08,02,12,00,27.70
2009,08,02,12,01,27.70
2009,08,02,12,02,27.80
2009,08,02,12,03,27.80
2009,08,02,12,04,27.90
2009,08,02,12,05,27.90
2009,08,02,12,06,27.90
2009,08,02,12,07,27.90
2009,08,02,12,08,27.90
2009,08,02,12,09,28.00
2009,08,02,12,10,28.10
2009,08,02,12,11,28.10
2009,08,02,12,12,28.10
2009,08,02,12,13,28.10
2009,08,02,12,14,28.10
2009,08,02,12,15,28.10
2009,08,02,12,16,28.20
2009,08,02,12,17,28.20
2009,08,02,12,18,28.20
2009,08,02,12,19,28.20
2009,08,02,12,20,28.30
2009,08,02,12,21,28.40
2009,08,02,12,22,28.40
2009,08,02,12,23,28.50
2009,08,02,12,24,28.50
2009,08,02,12,25,28.60
2009,08,02,12,26,28.70
2009,08,02,12,27,28.70
2009,08,02,12,28,28.80
2009,08,02,12,29,28.80
2009,08,02,12,30,28.80
2009,08,02,12,31,28.80
2009,08,02,12,32,28.80
2009,08,02,12,33,28.90
2009,08,02,12,34,29.00
2009,08,02,12,35,29.00
2009,08,02,12,36,28.90
2009,08,02,12,37,28.80
2009,08,02,12,38,28.80
2009,08,02,12,39,28.90
2009,08,02,12,40,28.90
2009,08,02,12,41,29.00
2009,08,02,12,42,28.90
2009,08,02,12,43,28.80
2009,08,02,12,44,28.70
2009,08,02,12,45,28.70
2009,08,02,12,46,28.80
2009,08,02,12,47,28.90
2009,08,02,12,48,29.00
2009,08,02,12,49,29.10
2009,08,02,12,50,29.10
2009,08,02,12,51,29.10
2009,08,02,12,52,29.00
2009,08,02,12,53,29.00
2009,08,02,12,54,28.90
2009,08,02,12,55,28.90
2009,08,02,12,56,29.00
2009,08,02,12,57,29.10
2009,08,02,12,58,29.10
2009,08,02,12,59,29.10
2009,08,02,13,00,29.10
2009,08,02,13,01,29.00
2009,08,02,13,02,29.10
2009,08,02,13,03,29.20
2009,08,02,13,04,29.20
2009,08,02,13,05,29.30
2009,08,02,13,06,29.40
2009,08,02,13,07,29.40
2009,08,02,13,08,29.30
2009,08,02,13,09,29.30
2009,08,02,13,10,29.30
2009,08,02,13,11,29.40
2009,08,02,13,12,29.50
2009,08,02,13,13,29.60
2009,08,02,13,14,29.60
2009,08,02,13,15,29.60
2009,08,02,13,16,29.60
2009,08,02,13,17,29.60
2009,08,02,13,18,29.60
2009,08,02,13,19,29.70
2009,08,02,13,20,29.80
2009,08,02,13,21,29.80
2009,08,02,13,22,29.80
2009,08,02,13,23,29.80
2009,08,02,13,24,29.80
2009,08,02,13,25,29.70
2009,08,02,13,26,29.50
2009,08,02,13,27,29.30
2009,08,02,13,28,29.20
2009,08,02,13,29,29.20
2009,08,02,13,30,29.20
2009,08,02,13,31,29.40
2009,08,02,13,32,29.40
2009,08,02,13,33,29.60
2009,08,02,13,34,29.70
2009,08,02,13,35,29.80
2009,08,02,13,36,29.90
2009,08,02,13,37,30.00
2009,08,02,13,38,30.00
2009,08,02,13,39,30.00
2009,08,02,13,40,30.00
2009,08,02,13,41,29.90
2009,08,02,13,42,29.90
2009,08,02,13,43,29.90
2009,08,02,13,44,29.90
2009,08,02,13,45,29.90
2009,08,02,13,46,30.00
2009,08,02,13,47,29.90
2009,08,02,13,48,29.90
2009,08,02,13,49,29.90
2009,08,02,13,50,29.90
2009,08,02,13,51,30.00
2009,08,02,13,52,30.00
2009,08,02,13,53,30.10
2009,08,02,13,54,30.20
2009,08,02,13,55,30.20
2009,08,02,13,56,30.20
2009,08,02,13,57,30.20
2009,08,02,13,58,30.10
2009,08,02,13,59,30.00
2009,08,02,14,00,30.00
2009,08,02,14,01,29.90
2009,08,02,14,02,29.90
2009,08,02,14,03,29.90
2009,08,02,14,04,29.90
2009,08,02,14,05,29.90
2009,08,02,14,06,29.90
2009,08,02,14,07,29.90
2009,08,02,14,08,29.80
2009,08,02,14,09,29.90
2009,08,02,14,10,30.00
2009,08,02,14,11,30.20
2009,08,02,14,12,30.30
2009,08,02,14,13,30.30
2009,08,02,14,14,30.30
2009,08,02,14,15,30.40
2009,08,02,14,16,30.50
2009,08,02,14,17,30.50
2009,08,02,14,18,30.60
2009,08,02,14,19,30.60
2009,08,02,14,20,30.50
2009,08,02,14,21,30.40
2009,08,02,14,22,30.30
2009,08,02,14,23,30.30
2009,08,02,14,24,30.30
2009,08,02,14,25,30.40
2009,08,02,14,26,30.50
2009,08,02,14,27,30.60
2009,08,02,14,28,30.60
2009,08,02,14,29,30.70
2009,08,02,14,30,30.60
2009,08,02,14,31,30.60
2009,08,02,14,32,30.50
2009,08,02,14,33,30.30
2009,08,02,14,34,30.20
2009,08,02,14,35,30.10
2009,08,02,14,36,30.00
2009,08,02,14,37,30.00
2009,08,02,14,38,29.80
2009,08,02,14,39,29.80
2009,08,02,14,40,29.70
2009,08,02,14,41,29.70
2009,08,02,14,42,29.70
2009,08,02,14,43,29.70
2009,08,02,14,44,29.60
2009,08,02,14,45,29.50
2009,08,02,14,46,29.40
2009,08,02,14,47,29.30
2009,08,02,14,48,29.40
2009,08,02,14,49,29.30
2009,08,02,14,50,29.20
2009,08,02,14,51,28.90
2009,08,02,14,52,28.50
2009,08,02,14,53,28.30
2009,08,02,14,54,28.10
2009,08,02,14,55,27.90
2009,08,02,14,56,27.70
2009,08,02,14,57,27.60
2009,08,02,14,58,27.70
2009,08,02,14,59,27.70
2009,08,02,15,00,27.70
2009,08,02,15,01,27.80
2009,08,02,15,02,27.80
2009,08,02,15,03,27.60
2009,08,02,15,04,27.40
2009,08,02,15,05,27.10
2009,08,02,15,06,26.90
2009,08,02,15,07,26.70
2009,08,02,15,08,26.70
2009,08,02,15,09,26.70
2009,08,02,15,10,26.70
2009,08,02,15,11,26.90
2009,08,02,15,12,27.00
2009,08,02,15,13,27.10
2009,08,02,15,14,27.10
2009,08,02,15,15,27.20
2009,08,02,15,16,27.20
2009,08,02,15,17,27.30
2009,08,02,15,18,27.30
2009,08,02,15,19,27.30
2009,08,02,15,20,27.20
2009,08,02,15,21,27.00
2009,08,02,15,22,26.80
2009,08,02,15,23,26.60
2009,08,02,15,24,26.40
2009,08,02,15,25,26.30
2009,08,02,15,26,26.30
2009,08,02,15,27,26.30
2009,08,02,15,28,26.30
2009,08,02,15,29,26.30
2009,08,02,15,30,26.40
2009,08,02,15,31,26.40
2009,08,02,15,32,26.50
2009,08,02,15,33,26.60
2009,08,02,15,34,26.70
2009,08,02,15,35,26.70
2009,08,02,15,36,26.90
2009,08,02,15,37,27.10
2009,08,02,15,38,27.30
2009,08,02,15,39,27.50
2009,08,02,15,40,27.60
2009,08,02,15,41,27.80
2009,08,02,15,42,27.90
2009,08,02,15,43,28.00
2009,08,02,15,44,28.10
2009,08,02,15,45,28.20
2009,08,02,15,46,28.10
2009,08,02,15,47,28.00
2009,08,02,15,48,27.80
2009,08,02,15,49,27.70
2009,08,02,15,50,27.50
2009,08,02,15,51,27.30
2009,08,02,15,52,27.10
2009,08,02,15,53,27.00
2009,08,02,15,54,26.90
2009,08,02,15,55,26.80
2009,08,02,15,56,26.80
2009,08,02,15,57,26.80
2009,08,02,15,58,26.50
2009,08,02,15,59,26.10
2009,08,02,16,00,25.70
2009,08,02,16,01,25.40
2009,08,02,16,02,25.10
2009,08,02,16,03,24.90
2009,08,02,16,04,24.70
2009,08,02,16,05,24.50
2009,08,02,16,06,24.30
2009,08,02,16,07,24.20
2009,08,02,16,08,24.10
2009,08,02,16,09,24.20
2009,08,02,16,10,24.40
2009,08,02,16,11,24.60
2009,08,02,16,12,24.80
2009,08,02,16,13,25.10
2009,08,02,16,14,25.30
2009,08,02,16,15,25.60
2009,08,02,16,16,25.80
2009,08,02,16,17,26.00
2009,08,02,16,18,26.10
2009,08,02,16,19,26.20
2009,08,02,16,20,26.20
2009,08,02,16,21,26.00
2009,08,02,16,22,25.90
2009,08,02,16,23,25.80
2009,08,02,16,24,25.60
2009,08,02,16,25,25.50
2009,08,02,16,26,25.30
2009,08,02,16,27,25.20
2009,08,02,16,28,25.20
2009,08,02,16,29,25.10
2009,08,02,16,30,25.00
2009,08,02,16,31,25.00
2009,08,02,16,32,24.90
2009,08,02,16,33,24.90
2009,08,02,16,34,24.90
2009,08,02,16,35,24.90
2009,08,02,16,36,25.00
2009,08,02,16,37,25.00
2009,08,02,16,38,25.10
2009,08,02,16,39,25.20
2009,08,02,16,40,25.30
2009,08,02,16,41,25.30
2009,08,02,16,42,25.30
2009,08,02,16,43,25.30
2009,08,02,16,44,25.30
2009,08,02,16,45,25.40
2009,08,02,16,46,25.50
2009,08,02,16,47,25.60
2009,08,02,16,48,25.80
2009,08,02,16,49,25.80
2009,08,02,16,50,25.90
2009,08,02,16,51,25.90
2009,08,02,16,52,25.90
2009,08,02,16,53,25.90
2009,08,02,16,54,25.90
2009,08,02,16,55,26.00
2009,08,02,16,56,26.10
2009,08,02,16,57,26.10
2009,08,02,16,58,26.10
2009,08,02,16,59,26.10
2009,08,02,17,00,26.00
2009,08,02,17,01,26.00
2009,08,02,17,02,26.00
2009,08,02,17,03,26.00
2009,08,02,17,04,26.00
2009,08,02,17,05,26.10
2009,08,02,17,06,26.20
2009,08,02,17,07,26.20
2009,08,02,17,08,26.30
2009,08,02,17,09,26.30
2009,08,02,17,10,26.40
2009,08,02,17,11,26.40
2009,08,02,17,12,26.40
2009,08,02,17,13,26.50
2009,08,02,17,14,26.40
2009,08,02,17,15,26.30
2009,08,02,17,16,26.20
2009,08,02,17,17,26.20
2009,08,02,17,18,26.10
2009,08,02,17,19,26.10